This is the latest recevied weather packets stored in our database for station/object K5RWS. If no packets are shown the sender has not sent any weather packets the latest 10 day(s).
| Time | Temp. | Humidity | Pressure | Rain* | Wind** | Luminosity | Snow |
|---|---|---|---|---|---|---|---|
| 1777769757 | 18.89° C | 30% | 1022.1 hPa | 0 mm | - | 45 W/m² | - |
| 1777769454 | 18.33° C | 31% | 1022 hPa | 0 mm | - | 47 W/m² | - |
| 1777769150 | 18.89° C | 31% | 1022.1 hPa | 0 mm | - | 54 W/m² | - |
| 1777768849 | 18.89° C | 30% | 1021.8 hPa | 0 mm | - | 60 W/m² | - |
| 1777768545 | 18.89° C | 29% | 1022.1 hPa | 0 mm | - | 58 W/m² | - |
| 1777768242 | 18.89° C | 29% | 1022.3 hPa | 0 mm | - | 73 W/m² | - |
| 1777767939 | 18.89° C | 29% | 1021.8 hPa | 0 mm | - | 82 W/m² | - |
| 1777767636 | 19.44° C | 28% | 1022 hPa | 0 mm | - | 46 W/m² | - |
| 1777767332 | 19.44° C | 28% | 1021.8 hPa | 0 mm | - | 107 W/m² | - |
| 1777767030 | 18.89° C | 29% | 1022.1 hPa | 0 mm | - | 122 W/m² | - |
| 1777766727 | 19.44° C | 27% | 1022.1 hPa | 0 mm | - | 161 W/m² | - |
| 1777766424 | 19.44° C | 28% | 1022 hPa | 0 mm | - | 158 W/m² | - |
| 1777766120 | 20° C | 26% | 1021.8 hPa | 0 mm | - | 177 W/m² | - |
| 1777765818 | 20° C | 26% | 1022 hPa | 0 mm | - | 199 W/m² | - |
| 1777765514 | 19.44° C | 26% | 1022.2 hPa | 0 mm | - | 213 W/m² | - |
| 1777765212 | 20° C | 26% | 1022 hPa | 0 mm | - | 226 W/m² | - |
| 1777764907 | 20° C | 25% | 1022.2 hPa | 0 mm | - | 245 W/m² | - |
| 1777764605 | 20° C | 26% | 1022.1 hPa | 0 mm | - | 257 W/m² | - |
| 1777764301 | 20° C | 26% | 1022 hPa | 0 mm | - | 271 W/m² | - |
| 1777763997 | 20° C | 27% | 1021.8 hPa | 0 mm | - | 254 W/m² | - |
| 1777763695 | 20° C | 26% | 1021.8 hPa | 0 mm | - | 289 W/m² | - |
| 1777763393 | 19.44° C | 28% | 1022 hPa | 0 mm | - | 314 W/m² | - |
| 1777763090 | 18.89° C | 28% | 1022 hPa | 0 mm | - | 330 W/m² | - |
| 1777762788 | 19.44° C | 27% | 1022.1 hPa | 0 mm | - | 342 W/m² | - |
| 1777762484 | 19.44° C | 28% | 1022 hPa | 0 mm | - | 359 W/m² | - |
* Rain latest hour (hover to see other rain measurements)
** Current wind speed in m/s (hover to see current wind gust speed)